DW4524 Weather Reports


time (UTC)temp
C
wind
direction
speed
KPH
gust
KPH
rain 1hr
cm
rain 24hr
cm
rain mn
cm
humidity
%
barometer
mb
20260507183401 15 220 1.6 12.9 0.00 1.07 0.05 27 1016.4
20260507182401 15 280 3.2 8.0 0.00 1.07 0.05 28 1016.5
20260507181901 15 265 3.2 4.8 0.00 1.07 0.05 25 1016.4
20260507181401 15 266 3.2 9.7 0.00 1.07 0.05 27 1016.4
20260507180901 14 305 1.6 11.3 0.00 1.07 0.05 26 1016.4
20260507180401 15 245 1.6 8.0 0.00 1.07 0.05 27 1016.5
20260507175901 15 329 1.6 9.7 0.00 1.07 0.05 26 1016.6
20260507175402 15 260 3.2 8.0 0.00 1.07 0.05 27 1016.7
20260507174901 14 305 0.0 4.8 0.00 1.07 0.05 26 1016.7
20260507174401 15 269 4.8 11.3 0.00 1.07 0.05 26 1016.9
20260507173902 14 215 8.0 11.3 0.00 1.07 0.05 28 1016.9
20260507173401 14 298 1.6 9.7 0.00 1.07 0.05 27 1017.0
20260507172902 14 217 3.2 8.0 0.00 1.07 0.05 28 1017.1
20260507172401 14 293 1.6 9.7 0.00 1.07 0.05 28 1017.1
20260507171901 14 302 3.2 4.8 0.00 1.07 0.05 28 1017.1
20260507171401 14 225 3.2 11.3 0.00 1.07 0.05 24 1017.2
20260507170902 14 229 3.2 9.7 0.00 1.07 0.05 26 1017.2
20260507170401 14 231 0.0 4.8 0.00 1.07 0.05 30 1017.3
20260507165901 13 252 3.2 9.7 0.00 1.07 0.05 28 1017.2
20260507165401 13 216 3.2 12.9 0.03 1.07 0.05 27 1017.3
20260507163901 13 231 1.6 4.8 0.03 1.07 0.05 25 1017.4
20260507163401 13 240 4.8 11.3 0.03 1.07 0.05 25 1017.5
20260507162902 13 216 3.2 12.9 0.03 1.07 0.05 26 1017.5
20260507162402 13 215 1.6 9.7 0.03 1.07 0.05 27 1017.5
20260507161901 13 286 1.6 11.3 0.03 1.07 0.05 29 1017.4
20260507161402 12 272 4.8 11.3 0.03 1.07 0.05 29 1017.5
20260507160401 12 245 0.0 9.7 0.03 1.07 0.05 30 1017.6
20260507155901 12 225 1.6 4.8 0.03 1.07 0.05 32 1017.6
20260507155401 12 222 1.6 8.0 0.03 1.04 0.03 29 1017.7
20260507154901 12 302 1.6 8.0 0.03 1.04 0.03 30 1017.7
20260507153902 11 196 3.2 9.7 0.03 1.04 0.03 33 1017.8
20260507153402 11 227 1.6 4.8 0.03 1.04 0.03 34 1017.8
20260507152901 11 273 3.2 8.0 0.03 1.04 0.03 35 1017.8
20260507151901 10 250 3.2 11.3 0.03 1.04 0.03 36 1017.7
20260507150902 10 257 3.2 9.7 0.03 1.04 0.03 37 1017.8
20260507150402 10 286 4.8 9.7 0.03 1.04 0.03 38 1017.9
20260507145901 10 210 3.2 9.7 0.03 1.04 0.03 40 1017.8
20260507145401 9 250 3.2 8.0 0.00 1.02 0.00 40 1017.7
20260507144902 9 265 1.6 8.0 0.00 1.02 0.00 41 1017.8
20260507143901 8 306 1.6 4.8 0.00 1.02 0.00 43 1017.9
20260507143402 8 305 3.2 8.0 0.00 1.02 0.00 45 1017.8
20260507142902 8 310 1.6 4.8 0.00 1.02 0.00 46 1017.9
20260507142402 8 324 1.6 4.8 0.00 1.02 0.00 46 1017.8
20260507141902 8 314 0.0 3.2 0.00 1.02 0.00 45 1017.8
20260507140403 7 24 0.0 3.2 0.00 1.02 0.00 46 1017.8
20260507135401 7 338 0.0 1.6 0.00 1.02 0.00 47 1017.8
20260507134402 6 106 0.0 1.6 0.00 1.02 0.00 49 1017.7
20260507133902 6 6 0.0 4.8 0.00 1.02 0.00 49 1017.7
20260507133402 5 349 0.0 3.2 0.00 1.02 0.00 50 1017.6
20260507132901 5 63 0.0 3.2 0.00 1.02 0.00 53 1017.5
20260507132402 3 12 1.6 4.8 0.00 1.02 0.00 55 1017.4
20260507131901 2 30 0.0 4.8 0.00 1.02 0.00 57 1017.3
20260507131401 2 346 0.0 1.6 0.00 1.02 0.00 58 1017.4
20260507130902 2 77 0.0 3.2 0.00 1.02 0.00 59 1017.4
20260507130402 2 42 0.0 3.2 0.00 1.02 0.00 60 1017.4
20260507125901 1 75 0.0 3.2 0.00 1.02 0.00 60 1017.3
20260507125402 1 76 0.0 3.2 0.00 1.02 0.00 60 1017.3
20260507124901 1 51 0.0 3.2 0.00 1.02 0.00 60 1017.2
20260507124402 1 32 0.0 4.8 0.00 1.02 0.00 59 1017.1
20260507123902 1 52 1.6 4.8 0.00 1.02 0.00 59 1017.1
20260507123402 1 42 0.0 3.2 0.00 1.02 0.00 59 1017.1
20260507122902 1 53 0.0 4.8 0.00 1.02 0.00 59 1017.1
20260507122401 1 62 0.0 0.0 0.00 1.02 0.00 60 1017.0
20260507120902 1 79 0.0 3.2 0.00 1.02 0.00 60 1016.9
20260507115902 0 59 0.0 1.6 0.00 1.02 0.00 61 1016.9
20260507114902 0 74 0.0 1.6 0.00 1.02 0.00 60 1016.9
20260507114402 0 72 0.0 3.2 0.00 1.02 0.00 60 1017.0
20260507113901 0 307 0.0 3.2 0.00 1.02 0.00 60 1017.1
20260507113402 0 91 0.0 1.6 0.00 1.02 0.00 59 1017.1
20260507112402 0 57 0.0 0.0 0.00 1.02 0.00 59 1017.0
20260507111402 0 76 0.0 1.6 0.00 1.02 0.00 59 1017.0
20260507110402 0 73 0.0 1.6 0.00 1.02 0.00 60 1017.1
20260507105902 0 75 0.0 3.2 0.00 1.02 0.00 60 1016.9
20260507104902 0 45 0.0 1.6 0.00 1.02 0.00 60 1016.8
20260507104402 0 79 0.0 3.2 0.00 1.02 0.00 60 1016.9
20260507103902 0 77 0.0 3.2 0.00 1.02 0.00 60 1016.9
20260507102902 0 70 0.0 3.2 0.00 1.02 0.00 61 1016.9
20260507101402 0 83 0.0 3.2 0.00 1.02 0.00 61 1017.1
20260507100902 0 100 0.0 3.2 0.00 1.02 0.00 61 1017.2
20260507100402 0 85 0.0 0.0 0.00 1.02 0.00 61 1017.2
20260507095902 0 80 0.0 0.0 0.00 1.02 0.00 62 1017.2
20260507095402 0 35 0.0 0.0 0.00 1.02 0.00 63 1017.2
20260507094902 0 44 0.0 0.0 0.00 1.02 0.00 64 1017.2
20260507094403 0 70 0.0 0.0 0.00 1.02 0.00 64 1017.1
20260507093902 0 80 0.0 0.0 0.00 1.02 0.00 64 1017.1
20260507093402 0 60 0.0 1.6 0.00 1.02 0.00 65 1017.1
20260507092902 0 68 0.0 1.6 0.00 1.02 0.00 65 1017.2
20260507092402 0 80 0.0 0.0 0.00 1.02 0.00 66 1017.2
20260507091902 0 86 0.0 0.0 0.00 1.02 0.00 67 1017.2
20260507090402 -1 86 0.0 0.0 0.00 1.02 0.00 73 1017.4
20260507085903 -1 86 0.0 0.0 0.00 1.02 0.00 74 1017.6
20260507085402 -1 86 0.0 0.0 0.00 1.02 0.00 74 1017.5
20260507084903 -1 52 0.0 0.0 0.00 1.02 0.00 75 1017.5
20260507084402 -1 79 0.0 0.0 0.00 1.02 0.00 76 1017.5
20260507083902 -1 82 0.0 0.0 0.00 1.02 0.00 76 1017.5
20260507082903 -1 80 0.0 0.0 0.00 1.02 0.00 79 1017.4
20260507082402 -1 92 0.0 0.0 0.00 1.02 0.00 81 1017.6
20260507081902 -1 78 0.0 0.0 0.00 1.02 0.00 83 1017.6
20260507081402 -1 76 0.0 0.0 0.00 1.02 0.00 86 1017.6
20260507080902 -1 82 0.0 0.0 0.00 1.02 0.00 87 1017.6
20260507080402 -2 76 0.0 0.0 0.00 1.02 0.00 89 1017.7
20260507075902 -2 276 0.0 0.0 0.00 1.02 0.00 89 1017.8
20260507075402 -2 282 0.0 0.0 0.00 1.02 0.00 88 1017.8
20260507074903 -2 85 0.0 0.0 0.00 1.02 0.00 89 1017.7
20260507074403 -2 85 0.0 0.0 0.00 1.02 0.00 90 1017.8
20260507073903 -2 85 0.0 0.0 0.00 1.02 0.00 91 1017.9
20260507073403 -2 88 0.0 0.0 0.00 1.02 0.00 91 1017.9
20260507072902 -2 102 0.0 0.0 0.00 1.02 0.00 92 1018.1
20260507072402 -2 102 0.0 0.0 0.00 1.02 0.00 93 1018.0
20260507071902 -2 86 0.0 0.0 0.00 1.02 0.00 93 1018.0
20260507071403 -2 12 0.0 0.0 0.00 1.02 0.00 93 1018.1
20260507070903 -2 87 0.0 0.0 0.00 1.02 0.00 94 1017.9
20260507070403 -2 82 0.0 1.6 0.00 1.02 0.00 93 1018.0
20260507065402 -2 82 0.0 0.0 0.51 1.02 0.00 93 1018.0
20260507064403 -2 82 0.0 0.0 0.51 1.02 0.00 93 1018.1
20260507063903 -2 82 0.0 0.0 0.51 1.02 0.00 93 1018.2
20260507063403 -2 82 0.0 0.0 0.51 1.02 0.00 93 1018.1
20260507061903 -2 82 0.0 0.0 0.51 1.02 0.00 93 1018.0
20260507061402 -2 82 0.0 0.0 0.51 1.02 0.00 93 1018.0
20260507060902 -1 82 0.0 0.0 0.51 1.02 0.00 93 1018.0
20260507055902 -1 77 0.0 1.6 0.00 0.89 0.51 93 1018.1
20260507055403 -1 84 0.0 1.6 0.00 0.89 0.51 93 1017.9
20260507054903 -1 84 0.0 0.0 0.00 0.89 0.51 93 1017.9
20260507053903 -1 84 0.0 0.0 0.00 0.89 0.51 92 1017.8
20260507053403 -1 84 0.0 1.6 0.00 0.89 0.51 92 1017.9
20260507052902 -1 94 0.0 1.6 0.00 0.89 0.51 92 1017.9
20260507052403 -1 86 0.0 0.0 0.00 0.89 0.51 92 1017.8
20260507051403 -1 107 0.0 0.0 0.00 0.89 0.51 92 1017.7
20260507050903 -1 105 0.0 0.0 0.00 0.89 0.51 92 1017.8
20260507050402 -1 82 0.0 3.2 0.00 0.89 0.51 92 1017.6
20260507045402 -1 72 0.0 4.8 0.00 0.89 0.51 92 1017.7
20260507044403 0 76 1.6 3.2 0.00 0.89 0.51 91 1017.7
20260507043903 0 233 0.0 1.6 0.00 0.89 0.51 91 1017.6
20260507043403 0 245 0.0 3.2 0.00 0.89 0.51 91 1017.6
20260507041403 0 240 0.0 0.0 0.00 0.89 0.51 91 1017.8
20260507040903 0 78 0.0 0.0 0.00 0.89 0.51 90 1017.8
20260507040403 0 79 0.0 0.0 0.00 0.89 0.51 90 1017.8
20260507035903 -1 81 0.0 0.0 0.00 0.89 0.51 90 1017.8
20260507035402 0 81 0.0 0.0 0.00 0.89 0.51 89 1017.8
20260507034903 0 81 0.0 0.0 0.00 0.89 0.51 89 1017.8
20260507034404 0 250 0.0 1.6 0.00 0.89 0.51 88 1017.8
20260507033903 0 226 0.0 0.0 0.00 0.89 0.51 88 1017.9
20260507033403 0 252 0.0 0.0 0.00 0.89 0.51 87 1017.8
20260507032402 0 246 0.0 0.0 0.00 0.89 0.51 87 1017.8
20260507031903 0 279 0.0 0.0 0.00 0.89 0.51 87 1017.6
20260507031403 0 45 0.0 3.2 0.00 0.89 0.51 86 1017.7
20260507030903 0 94 0.0 0.0 0.00 0.89 0.51 85 1017.6
20260507030403 0 84 0.0 1.6 0.00 0.89 0.51 85 1017.5
20260507025903 0 90 0.0 0.0 0.00 0.89 0.51 85 1017.4
20260507024903 0 255 0.0 1.6 0.00 0.89 0.51 83 1017.4
20260507024403 0 221 0.0 4.8 0.00 0.89 0.51 83 1017.4
20260507023903 0 250 0.0 0.0 0.00 0.89 0.51 83 1017.4
20260507022403 0 218 1.6 4.8 0.00 0.89 0.51 80 1017.4
20260507021903 0 229 1.6 4.8 0.00 0.89 0.51 79 1017.4
20260507021404 1 215 1.6 4.8 0.00 0.89 0.51 78 1017.4
20260507020903 1 227 1.6 4.8 0.00 0.89 0.51 77 1017.2
20260507020403 1 222 3.2 4.8 0.00 0.89 0.51 77 1017.2
20260507015903 1 220 3.2 4.8 0.00 0.89 0.51 77 1017.1
20260507015403 1 215 0.0 3.2 0.00 0.89 0.51 76 1017.1
20260507014903 2 248 0.0 3.2 0.00 0.89 0.51 74 1017.2
20260507013903 2 222 3.2 8.0 0.03 0.89 0.51 71 1017.2
20260507013403 2 217 3.2 8.0 0.03 0.89 0.51 71 1017.2
20260507012903 3 223 1.6 8.0 0.03 0.89 0.51 70 1017.1
20260507012403 3 232 0.0 4.8 0.03 0.89 0.51 71 1017.1
20260507011903 3 255 3.2 8.0 0.03 0.89 0.51 69 1017.2
20260507011403 3 230 3.2 9.7 0.03 0.89 0.51 70 1017.1
20260507010903 3 208 4.8 9.7 0.05 0.89 0.51 68 1017.1
20260507010403 3 215 4.8 9.7 0.05 0.89 0.51 69 1017.1
20260507005903 3 207 4.8 11.3 0.05 0.89 0.51 68 1017.0
20260507005403 3 216 1.6 8.0 0.05 0.89 0.51 69 1016.9
20260507004903 3 212 4.8 9.7 0.05 0.91 0.51 68 1016.9
20260507004403 3 210 3.2 8.0 0.05 0.89 0.48 68 1016.9
20260507003903 3 237 3.2 9.7 0.05 0.89 0.48 67 1016.9
20260507002903 4 211 3.2 11.3 0.05 0.89 0.48 64 1016.9
20260507002403 4 240 3.2 8.0 0.08 0.89 0.48 65 1016.8
20260507001903 4 266 1.6 4.8 0.08 0.89 0.48 67 1016.8
20260507001404 3 118 0.0 4.8 0.08 0.89 0.48 68 1016.8
20260507000904 3 230 3.2 8.0 0.05 0.86 0.46 68 1016.9
20260507000405 3 262 3.2 12.9 0.08 0.86 0.46 64 1016.9
20260506235903 4 213 3.2 8.0 0.08 0.86 0.46 65 1016.8
20260506235404 4 213 4.8 9.7 0.08 0.86 0.46 65 1016.8
20260506234403 4 222 1.6 4.8 0.08 0.84 0.43 66 1016.6
20260506233904 3 234 4.8 8.0 0.08 0.84 0.43 67 1016.7
20260506233403 3 226 0.0 9.7 0.10 0.84 0.43 67 1016.7
20260506232903 3 215 3.2 9.7 0.10 0.84 0.43 70 1016.8
20260506232403 2 230 0.0 4.8 0.08 0.81 0.41 71 1016.8
20260506231903 2 231 3.2 4.8 0.10 0.81 0.41 70 1016.9
20260506231403 2 212 3.2 8.0 0.10 0.81 0.41 71 1016.9
20260506230903 2 231 0.0 1.6 0.13 0.81 0.41 71 1016.8
20260506230403 2 221 0.0 1.6 0.10 0.79 0.38 71 1016.8
20260506225903 2 250 0.0 1.6 0.10 0.81 0.38 73 1016.8
20260506225404 2 208 1.6 4.8 0.13 0.81 0.38 71 1016.8
20260506224903 2 77 0.0 3.2 0.13 0.79 0.36 72 1016.7
20260506224404 2 71 1.6 4.8 0.13 0.79 0.36 73 1016.7
20260506223903 2 303 0.0 4.8 0.15 0.79 0.36 75 1016.7
20260506223404 2 88 0.0 4.8 0.15 0.76 0.33 76 1016.8
20260506222903 1 325 0.0 3.2 0.20 0.79 0.33 74 1016.7
20260506222404 1 3 1.6 4.8 0.30 0.79 0.33 76 1016.7
20260506221904 1 14 0.0 3.2 0.30 0.76 0.30 75 1016.9
20260506221403 1 316 0.0 3.2 0.30 0.76 0.30 76 1017.0
20260506220904 1 356 1.6 4.8 0.28 0.74 0.28 76 1016.9
20260506220403 1 340 1.6 4.8 0.28 0.74 0.28 76 1016.9
20260506215903 1 291 0.0 3.2 0.28 0.74 0.28 74 1016.9
20260506215403 1 319 0.0 4.8 0.25 0.74 0.25 73 1016.9
20260506214904 2 300 1.6 8.0 0.23 0.71 0.23 75 1016.9
20260506213904 1 26 1.6 8.0 0.20 0.69 0.20 76 1017.0
20260506213403 1 57 3.2 8.0 0.18 0.66 0.18 76 1017.0
20260506212904 1 57 6.4 12.9 0.13 0.61 0.13 77 1016.9
20260506211903 1 74 8.0 14.5 0.00 0.48 0.00 75 1017.0
20260506211403 2 54 4.8 12.9 0.00 0.48 0.00 78 1017.0
20260506210903 2 338 3.2 9.7 0.00 0.48 0.00 80 1017.2
20260506210404 1 288 3.2 9.7 0.00 0.48 0.00 81 1017.2
20260506205903 1 57 1.6 19.3 0.00 0.48 0.00 80 1017.2
20260506205404 1 79 3.2 9.7 0.00 0.48 0.00 79 1017.1
20260506204904 1 82 3.2 14.5 0.00 0.48 0.00 78 1017.1
20260506204404 1 61 1.6 4.8 0.00 0.48 0.00 83 1017.1
20260506203904 1 13 3.2 9.7 0.00 0.51 0.00 81 1017.2
20260506202904 1 347 1.6 11.3 0.00 0.51 0.00 80 1017.3
20260506202401 1 61 1.6 8.0 0.00 0.51 0.00 84 1017.3
20260506201900 1 291 1.6 12.9 0.00 0.51 0.00 82 1017.2
20260506201401 1 28 3.2 9.7 0.00 0.51 0.00 82 1017.3
20260506200901 1 5 3.2 9.7 0.00 0.51 0.00 84 1017.0
20260506195901 0 70 4.8 16.1 0.00 0.51 0.00 83 1017.1
20260506195401 0 71 4.8 12.9 0.00 0.51 0.00 84 1017.0
20260506194901 0 318 3.2 9.7 0.00 0.51 0.00 83 1017.0
20260506194401 0 61 4.8 9.7 0.00 0.51 0.00 81 1016.9
20260506193901 0 75 3.2 9.7 0.00 0.53 0.00 83 1016.9
20260506193401 0 347 3.2 9.7 0.00 0.53 0.00 83 1016.9
20260506192901 0 59 3.2 14.5 0.00 0.53 0.00 83 1016.9
20260506192401 0 32 3.2 9.7 0.00 0.53 0.00 83 1016.9
20260506191901 0 70 3.2 11.3 0.00 0.53 0.00 83 1016.9
20260506191401 0 55 3.2 11.3 0.00 0.53 0.00 83 1016.9
20260506190401 1 54 1.6 4.8 0.00 0.53 0.00 83 1016.9
20260506185901 1 87 3.2 8.0 0.00 0.56 0.00 83 1016.8
20260506185401 0 47 3.2 8.0 0.00 0.56 0.00 84 1016.8
20260506183901 0 81 1.6 4.8 0.00 0.56 0.00 85 1017.1